Regional Weather Roundup
Issued by NWS Goodland, KS

Home | Current Version | Previous Version | Graphics & Text | Print | Product List | Glossary On
Versions: 1 2 3 4 5 6 7 8 9 10 11 12 13 14 15 16 17 18 19 20 21 22 23 24 25 26 27 28 29 30 31 32 33 34 35 36 37 38 39 40 41 42 43 44 45 46 47 48 49 50
788
ASUS43 KGLD 170159
RWRGLD

GOODLAND FORECAST AREA HOURLY WEATHER ROUNDUP
NATIONAL WEATHER SERVICE GOODLAND KS
800 PM MDT MON OCT 16 2017

...OFFICIAL OBSERVATIONS...

CITY           SKY/WX    TMP DP  RH WIND       PRES   REMARKS
GOODLAND KS    CLOUDY    60  34  37 S10       30.15R
HILL CITY KS   MOCLDY    63  36  36 S8        30.13S
IMPERIAL NEB   CLOUDY    59  28  30 NW6       30.13R
MCCOOK NEB     MOCLDY    61  38  42 SW8       30.09S
AKRON CO       CLOUDY    59  17  19 NE6       30.20
BURLINGTON CO  CLOUDY    58  29  33 SW5       30.18R
LIMON CO       CLOUDY    40  22  48 CALM      30.25R
$$

...UNOFFICIAL OBSERVATIONS...

CITY           SKY/WX    TMP DP  RH WIND       PRES   REMARKS
NORTON KS      CLEAR     61  28  29 S13G20    30.10S
SHARON SPRINGS   N/A     57  33  41 CALM        N/A
TRENTON NEB      N/A     62  32  32 CALM        N/A
KIT CARSON CO    N/A     56  30  37 CALM        N/A
YUMA CO        FAIR      52  21  30 N7        30.17R
$$




USA.gov is the U.S. government's official web portal to all federal, state and local government web resources and services.